Weather in Altynkul

Uzbekistan     40°48′03″N   72°10′27″E
temp.,
°C
wind,
m/s
gust,
m/s
humid.,
%
clouds,
%
prec.,
mm/h
press.,
hPa
HPBL,
m
9 march, tue
tue923:00+11ene2354100 0.0 1025119
02:00+10ene1250100 0.0 1023105
05:00+10ene1250100 0.0 102346
08:00+10ene2347100 0.0 1022136
11:00+14ne233199 0.0 1019634
14:00+17nne2326100 0.0 10161040
17:00+17wnw1227100 0.0 1017665
20:00+14nne113495 0.0 101823
10 march, wed
wed1023:00+13ene224398 0.0 101751
02:00+12ne1245100 0.0 101550
05:00+11ese1247100 0.0 101649
08:00+11ese1245100 0.0 101776
11:00+15n2236100 0.0 1017814
14:00+17n122867 0.0 10161084
17:00+17wnw353783 0.0 10161536
20:00+14n1250100 0.0 1018252
11 march, thu
thu1123:00+12n3660100 0.0 1016415
02:00+11w4571100 0.0 1015563
05:00+10wsw3587100 2.9 1016464
08:00+9wsw51070100 3.2 10191143
11:00+12w3546100 3.4 10201384
14:00+12ene3343100 0.0 10211381
17:00+12ene3451100 0.0 1022770
20:00+10ene2559100 0.0 1025307
12 march, fri
fri1223:00+9ne1160100 0.0 102440
02:00+8ene1255100 0.0 102242
05:00+7ene1257100 0.0 102168
08:00+7ene2244100 0.0 1019122
11:00+12ne2325100 0.0 1015479
14:00+16ne1217100 0.0 1012842
17:00+16n2220100 0.0 1011611
20:00+14w1226100 0.0 101237
13 march, sat
sat1323:00+13ese0027100 0.0 101422
02:00+12ene2333100 0.0 101479
05:00+12ene2340100 0.0 101573
08:00+11ne1347100 0.0 1015160
11:00+13n2453100 0.0 1014401
14:00+16nnw2244100 0.0 1011878
17:00+16nw3348100 0.0 1010692
20:00+14n1253100 0.0 101181